Time,TemperatureF,DewpointF,PressureIn,WindDirection,WindDirectionDegrees,WindSpeedMPH,WindSpeedGustMPH,Humidity,HourlyPrecipIn,Conditions,Clouds,dailyrainin,SoftwareType,DateUTC
2013-03-04 00:00:00,11.0,7.0,-100.00,North,350,8.0,13.0,82,-99.99,,,-99.99,,2013-03-04 07:00:00,
2013-03-04 00:32:00,11.0,7.0,-100.00,North,350,8.0,13.0,82,-99.99,,,-99.99,,2013-03-04 07:32:00,
2013-03-04 00:42:00,11.0,7.0,-100.00,North,350,8.0,13.0,82,-99.99,,,-99.99,,2013-03-04 07:42:00,
2013-03-04 00:52:00,11.0,7.0,-100.00,North,350,8.0,13.0,82,-99.99,,,-99.99,,2013-03-04 07:52:00,
2013-03-04 01:00:00,11.0,7.0,-100.00,North,357,8.0,13.0,83,-99.99,,,-99.99,,2013-03-04 08:00:00,
2013-03-04 01:32:00,11.0,7.0,-100.00,North,357,8.0,13.0,83,-99.99,,,-99.99,,2013-03-04 08:32:00,
2013-03-04 01:42:00,11.0,7.0,-100.00,North,357,8.0,13.0,83,-99.99,,,-99.99,,2013-03-04 08:42:00,
2013-03-04 01:52:00,11.0,7.0,-100.00,North,357,8.0,13.0,83,-99.99,,,-99.99,,2013-03-04 08:52:00,
2013-03-04 02:00:00,10.0,7.0,-100.00,NW,312,9.0,16.0,83,-99.99,,,-99.99,,2013-03-04 09:00:00,
2013-03-04 02:32:00,10.0,7.0,-100.00,NW,312,9.0,16.0,83,-99.99,,,-99.99,,2013-03-04 09:32:00,
2013-03-04 02:42:00,10.0,7.0,-100.00,NW,312,9.0,16.0,83,-99.99,,,-99.99,,2013-03-04 09:42:00,
2013-03-04 02:52:00,10.0,7.0,-100.00,NW,312,9.0,16.0,83,-99.99,,,-99.99,,2013-03-04 09:52:00,
2013-03-04 03:00:00,10.0,6.0,-100.00,North,3,8.0,12.0,85,-99.99,,,-99.99,,2013-03-04 10:00:00,
2013-03-04 03:32:00,10.0,6.0,-100.00,North,3,8.0,12.0,85,-99.99,,,-99.99,,2013-03-04 10:32:00,
2013-03-04 03:42:00,10.0,6.0,-100.00,North,3,8.0,12.0,85,-99.99,,,-99.99,,2013-03-04 10:42:00,
2013-03-04 03:52:00,10.0,6.0,-100.00,North,3,8.0,12.0,85,-99.99,,,-99.99,,2013-03-04 10:52:00,
2013-03-04 04:00:00,10.0,6.0,-100.00,NNE,18,8.0,13.0,82,-99.99,,,-99.99,,2013-03-04 11:00:00,
2013-03-04 04:32:00,10.0,6.0,-100.00,NNE,18,8.0,13.0,82,-99.99,,,-99.99,,2013-03-04 11:32:00,
2013-03-04 04:42:00,10.0,6.0,-100.00,NNE,18,8.0,13.0,82,-99.99,,,-99.99,,2013-03-04 11:42:00,
2013-03-04 04:52:00,10.0,6.0,-100.00,NNE,18,8.0,13.0,82,-99.99,,,-99.99,,2013-03-04 11:52:00,
2013-03-04 05:00:00,10.0,6.0,-100.00,NNE,14,8.0,13.0,83,-99.99,,,-99.99,,2013-03-04 12:00:00,
2013-03-04 05:32:00,10.0,6.0,-100.00,NNE,14,8.0,13.0,83,-99.99,,,-99.99,,2013-03-04 12:32:00,
2013-03-04 05:42:00,10.0,6.0,-100.00,NNE,14,8.0,13.0,83,-99.99,,,-99.99,,2013-03-04 12:42:00,
2013-03-04 05:53:00,10.0,6.0,-100.00,NNE,14,8.0,13.0,83,-99.99,,,-99.99,,2013-03-04 12:53:00,
2013-03-04 06:00:00,10.0,5.0,-100.00,NE,35,11.0,14.0,82,-99.99,,,-99.99,,2013-03-04 13:00:00,
2013-03-04 06:32:00,10.0,5.0,-100.00,NE,35,11.0,14.0,82,-99.99,,,-99.99,,2013-03-04 13:32:00,
2013-03-04 06:42:00,10.0,5.0,-100.00,NE,35,11.0,14.0,82,-99.99,,,-99.99,,2013-03-04 13:42:00,
2013-03-04 06:52:00,10.0,5.0,-100.00,NE,35,11.0,14.0,82,-99.99,,,-99.99,,2013-03-04 13:52:00,
2013-03-04 07:00:00,9.0,5.0,-100.00,NE,54,12.0,14.0,83,-99.99,,,-99.99,,2013-03-04 14:00:00,
2013-03-04 07:32:00,9.0,5.0,-100.00,NE,54,12.0,14.0,83,-99.99,,,-99.99,,2013-03-04 14:32:00,
2013-03-04 07:42:00,9.0,5.0,-100.00,NE,54,12.0,14.0,83,-99.99,,,-99.99,,2013-03-04 14:42:00,
2013-03-04 07:52:00,9.0,5.0,-100.00,NE,54,12.0,14.0,83,-99.99,,,-99.99,,2013-03-04 14:52:00,
2013-03-04 08:00:00,10.0,6.0,-100.00,NE,49,10.0,15.0,80,-99.99,,,-99.99,,2013-03-04 15:00:00,
2013-03-04 08:32:00,10.0,6.0,-100.00,NE,49,10.0,15.0,80,-99.99,,,-99.99,,2013-03-04 15:32:00,
2013-03-04 08:42:00,10.0,6.0,-100.00,NE,49,10.0,15.0,80,-99.99,,,-99.99,,2013-03-04 15:42:00,
2013-03-04 08:52:00,10.0,6.0,-100.00,NE,49,10.0,15.0,80,-99.99,,,-99.99,,2013-03-04 15:52:00,
2013-03-04 09:00:00,13.0,8.0,-100.00,ENE,65,10.0,15.0,79,-99.99,,,-99.99,,2013-03-04 16:00:00,
2013-03-04 09:32:00,13.0,8.0,-100.00,ENE,65,10.0,15.0,79,-99.99,,,-99.99,,2013-03-04 16:32:00,
2013-03-04 09:42:00,13.0,8.0,-100.00,ENE,65,10.0,15.0,79,-99.99,,,-99.99,,2013-03-04 16:42:00,
2013-03-04 09:52:00,13.0,8.0,-100.00,ENE,65,10.0,15.0,79,-99.99,,,-99.99,,2013-03-04 16:52:00,
2013-03-04 10:00:00,15.0,9.0,-100.00,East,86,6.0,8.0,76,-99.99,,,-99.99,,2013-03-04 17:00:00,
2013-03-04 10:32:00,15.0,9.0,-100.00,East,86,6.0,8.0,76,-99.99,,,-99.99,,2013-03-04 17:32:00,
2013-03-04 10:42:00,15.0,9.0,-100.00,East,86,6.0,8.0,76,-99.99,,,-99.99,,2013-03-04 17:42:00,
2013-03-04 10:52:00,15.0,9.0,-100.00,East,86,6.0,8.0,76,-99.99,,,-99.99,,2013-03-04 17:52:00,
2013-03-04 11:00:00,19.0,12.0,-100.00,ENE,78,7.0,11.0,74,-99.99,,,-99.99,,2013-03-04 18:00:00,
2013-03-04 11:32:00,19.0,12.0,-100.00,ENE,78,7.0,11.0,74,-99.99,,,-99.99,,2013-03-04 18:32:00,
2013-03-04 11:42:00,19.0,12.0,-100.00,ENE,78,7.0,11.0,74,-99.99,,,-99.99,,2013-03-04 18:42:00,
2013-03-04 11:52:00,19.0,12.0,-100.00,ENE,78,7.0,11.0,74,-99.99,,,-99.99,,2013-03-04 18:52:00,
2013-03-04 12:00:00,20.0,12.0,-100.00,ESE,109,5.0,9.0,69,-99.99,,,-99.99,,2013-03-04 19:00:00,
2013-03-04 12:32:00,20.0,12.0,-100.00,ESE,109,5.0,9.0,69,-99.99,,,-99.99,,2013-03-04 19:32:00,
2013-03-04 12:42:00,20.0,12.0,-100.00,ESE,109,5.0,9.0,69,-99.99,,,-99.99,,2013-03-04 19:42:00,
2013-03-04 12:52:00,20.0,12.0,-100.00,ESE,109,5.0,9.0,69,-99.99,,,-99.99,,2013-03-04 19:52:00,
2013-03-04 13:00:00,24.0,14.0,-100.00,South,190,4.0,6.0,65,-99.99,,,-99.99,,2013-03-04 20:00:00,
2013-03-04 13:32:00,24.0,14.0,-100.00,South,190,4.0,6.0,65,-99.99,,,-99.99,,2013-03-04 20:32:00,
2013-03-04 13:42:00,24.0,14.0,-100.00,South,190,4.0,6.0,65,-99.99,,,-99.99,,2013-03-04 20:42:00,
2013-03-04 13:52:00,24.0,14.0,-100.00,South,190,4.0,6.0,65,-99.99,,,-99.99,,2013-03-04 20:52:00,
2013-03-04 14:00:00,23.0,16.0,-100.00,SSW,202,5.0,8.0,71,-99.99,,,-99.99,,2013-03-04 21:00:00,
2013-03-04 14:32:00,23.0,16.0,-100.00,SSW,202,5.0,8.0,71,-99.99,,,-99.99,,2013-03-04 21:32:00,
2013-03-04 14:43:00,23.0,16.0,-100.00,SSW,202,5.0,8.0,71,-99.99,,,-99.99,,2013-03-04 21:43:00,
2013-03-04 14:52:00,23.0,16.0,-100.00,SSW,202,5.0,8.0,71,-99.99,,,-99.99,,2013-03-04 21:52:00,
2013-03-04 15:00:00,22.0,14.0,-100.00,SW,226,7.0,11.0,71,-99.99,,,-99.99,,2013-03-04 22:00:00,
2013-03-04 15:32:00,22.0,14.0,-100.00,SW,226,7.0,11.0,71,-99.99,,,-99.99,,2013-03-04 22:32:00,
2013-03-04 15:43:00,22.0,14.0,-100.00,SW,226,7.0,11.0,71,-99.99,,,-99.99,,2013-03-04 22:43:00,
2013-03-04 15:52:00,22.0,14.0,-100.00,SW,226,7.0,11.0,71,-99.99,,,-99.99,,2013-03-04 22:52:00,
2013-03-04 16:00:00,21.0,9.0,-100.00,SSW,213,5.0,8.0,58,-99.99,,,-99.99,,2013-03-04 23:00:00,
2013-03-04 16:32:00,21.0,9.0,-100.00,SSW,213,5.0,8.0,58,-99.99,,,-99.99,,2013-03-04 23:32:00,
2013-03-04 16:42:00,21.0,9.0,-100.00,SSW,213,5.0,8.0,58,-99.99,,,-99.99,,2013-03-04 23:42:00,
2013-03-04 16:52:00,21.0,9.0,-100.00,SSW,213,5.0,8.0,58,-99.99,,,-99.99,,2013-03-04 23:52:00,
2013-03-04 17:00:00,22.0,10.0,-100.00,South,191,4.0,7.0,60,-99.99,,,-99.99,,2013-03-05 00:00:00,
2013-03-04 17:32:00,22.0,10.0,-100.00,South,191,4.0,7.0,60,-99.99,,,-99.99,,2013-03-05 00:32:00,
2013-03-04 17:42:00,22.0,10.0,-100.00,South,191,4.0,7.0,60,-99.99,,,-99.99,,2013-03-05 00:42:00,
2013-03-04 17:52:00,22.0,10.0,-100.00,South,191,4.0,7.0,60,-99.99,,,-99.99,,2013-03-05 00:52:00,
2013-03-04 19:00:00,18.0,12.0,-100.00,SSW,202,5.0,8.0,76,-99.99,,,-99.99,,2013-03-05 02:00:00,
2013-03-04 19:32:00,18.0,12.0,-100.00,SSW,202,5.0,8.0,76,-99.99,,,-99.99,,2013-03-05 02:32:00,
2013-03-04 19:42:00,18.0,12.0,-100.00,SSW,202,5.0,8.0,76,-99.99,,,-99.99,,2013-03-05 02:42:00,
2013-03-04 19:52:00,18.0,12.0,-100.00,SSW,202,5.0,8.0,76,-99.99,,,-99.99,,2013-03-05 02:52:00,
2013-03-04 20:00:00,14.0,8.0,-100.00,SSW,205,7.0,10.0,74,-99.99,,,-99.99,,2013-03-05 03:00:00,
2013-03-04 20:32:00,14.0,8.0,-100.00,SSW,205,7.0,10.0,74,-99.99,,,-99.99,,2013-03-05 03:32:00,
2013-03-04 20:42:00,14.0,8.0,-100.00,SSW,205,7.0,10.0,74,-99.99,,,-99.99,,2013-03-05 03:42:00,
2013-03-04 20:52:00,14.0,8.0,-100.00,SSW,205,7.0,10.0,74,-99.99,,,-99.99,,2013-03-05 03:52:00,
2013-03-04 21:00:00,15.0,7.0,-100.00,SSW,192,9.0,13.0,69,-99.99,,,-99.99,,2013-03-05 04:00:00,
2013-03-04 21:32:00,15.0,7.0,-100.00,SSW,192,9.0,13.0,69,-99.99,,,-99.99,,2013-03-05 04:32:00,
2013-03-04 21:42:00,15.0,7.0,-100.00,SSW,192,9.0,13.0,69,-99.99,,,-99.99,,2013-03-05 04:42:00,
2013-03-04 21:52:00,15.0,7.0,-100.00,SSW,192,9.0,13.0,69,-99.99,,,-99.99,,2013-03-05 04:52:00,
2013-03-04 22:00:00,15.0,6.0,-100.00,SSW,205,8.0,13.0,67,-99.99,,,-99.99,,2013-03-05 05:00:00,
2013-03-04 22:32:00,15.0,6.0,-100.00,SSW,205,8.0,13.0,67,-99.99,,,-99.99,,2013-03-05 05:32:00,
2013-03-04 22:42:00,15.0,6.0,-100.00,SSW,205,8.0,13.0,67,-99.99,,,-99.99,,2013-03-05 05:42:00,
2013-03-04 22:52:00,15.0,6.0,-100.00,SSW,205,8.0,13.0,67,-99.99,,,-99.99,,2013-03-05 05:52:00,
2013-03-04 23:00:00,15.0,4.0,-100.00,South,177,7.0,11.0,61,-99.99,,,-99.99,,2013-03-05 06:00:00,
2013-03-04 23:32:00,15.0,4.0,-100.00,South,177,7.0,11.0,61,-99.99,,,-99.99,,2013-03-05 06:32:00,
2013-03-04 23:42:00,15.0,4.0,-100.00,South,177,7.0,11.0,61,-99.99,,,-99.99,,2013-03-05 06:42:00,
2013-03-04 23:52:00,15.0,4.0,-100.00,South,177,7.0,11.0,61,-99.99,,,-99.99,,2013-03-05 06:52:00,